Location: Briarwood
(39.0812°N, 76.8511°W)
Time: 22:44:36
(UTC+00:00)

Cosmos 2333 Rocket - Pass Details

Date: 10 September 2024
Orbit: 840 x 862 km, 70.8° (Epoch: 06 October)

Event Time Altitude Azimuth Distance (km) Brightness Sun altitude
Rises 23:45:01 0° 217° (SW) 3,423 5.8 -5.1°
Reaches altitude 10° 23:47:33 10° 222° (SW) 2,492 5.1 -5.6°
Maximum altitude 23:53:05 50° 297° (WNW) 1,092 3.4 -6.6°
Drops below altitude 10° 23:58:41 10° 13° (NNE) 2,506 4.7 -7.7°
Sets 00:01:15 0° 19° (NNE) 3,445 5.3 -8.2°
